Brainerd, MN

6:16 PM CDT on July 20, 2017 (GMT -0500)
Brainerd-Crow Wing County Regional

Weather History for KBRD - April, 2014

Change the Weather History Date:

Friday, April 11, 2014

  Actual Average Record
Temperature  
Mean Temperature 49 °F -  
Max Temperature 63 °F 51 °F 86 °F (1977)
Min Temperature 37 °F 27 °F 10 °F (1957)
Degree Days  
Heating Degree Days 16    
Moisture  
Dew Point 29 °F    
Average Humidity 43    
Maximum Humidity 68    
Minimum Humidity 27    
Precipitation  
Precipitation 0.00 in - - ()
Sea Level Pressure  
Sea Level Pressure 29.93 in    
Wind  
Wind Speed 7 mph (WSW)    
Max Wind Speed 15 mph    
Max Gust Speed 18 mph    
Visibility 10 miles    
Events      
Averages and records for this station are not official NWS values.
T = Trace of Precipitation, MM = Missing Value Source: NWS Daily Summary

Daily Weather History Graph

Daily Weather History Graph

Search for Another Location

Airport or City:

Trip Planner

Search our weather history database for the weather conditions in past years. The results will help you decide how hot, cold, wet, or windy it might be!

Date:

Astronomy

Apr. 11, 2014 Rise Set
Actual Time 6:37 AM CDT 7:58 PM CDT
Civil Twilight 6:05 AM CDT 8:30 PM CDT
Nautical Twilight 5:28 AM CDT 9:08 PM CDT
Astronomical Twilight 4:48 AM CDT 9:48 PM CDT
Moon 4:29 PM CDT (4/11) 4:44 AM CDT (4/11)
Length of Visible Light 14h 24m
Length of Day
13h 21m
Waxing Gibbous, 87% of the Moon is Illuminated
Apr 11
Waxing Gibbous
Apr 15
Full
Apr 22
Last Quarter
Apr 29
New
May 6
First Quarter

Hourly Weather History & Observations

Time (CDT) Temp. Windchill Dew Point Humidity Pressure Visibility Wind Dir Wind Speed Gust Speed Precip Events Conditions
12:53 AM 37.0 °F 34.5 °F 23.0 °F 57% 29.92 in 10.0 mi SSW 3.5 mph - N/A   Mostly Cloudy
1:53 AM 39.0 °F 36.8 °F 25.0 °F 57% 29.92 in 10.0 mi SSW 3.5 mph - N/A   Overcast
2:53 AM 39.9 °F 36.7 °F 26.1 °F 58% 29.92 in 10.0 mi SSW 4.6 mph - N/A   Overcast
3:53 AM 45.0 °F 40.6 °F 26.1 °F 48% 29.92 in 10.0 mi SW 8.1 mph - N/A   Overcast
4:53 AM 48.0 °F - 32.0 °F 54% 29.92 in 10.0 mi SW 15.0 mph - N/A   Overcast
5:53 AM 46.0 °F 41.0 °F 35.1 °F 66% 29.92 in 10.0 mi SW 10.4 mph - N/A   Overcast
6:53 AM 45.0 °F 40.6 °F 35.1 °F 68% 29.93 in 10.0 mi SW 8.1 mph - N/A   Mostly Cloudy
7:53 AM 46.9 °F - 35.1 °F 63% 29.93 in 10.0 mi SW 9.2 mph - N/A   Clear
8:53 AM 50.0 °F - 35.1 °F 57% 29.93 in 10.0 mi WSW 10.4 mph - N/A   Clear
9:53 AM 55.0 °F - 33.1 °F 43% 29.93 in 10.0 mi West 9.2 mph - N/A   Clear
10:53 AM 57.0 °F - 30.0 °F 36% 29.94 in 10.0 mi WNW 10.4 mph - N/A   Clear
11:53 AM 60.1 °F - 27.0 °F 28% 29.95 in 10.0 mi WSW 13.8 mph 17.3 mph N/A   Clear
12:53 PM 59.0 °F - 26.1 °F 28% 29.96 in 10.0 mi WNW 8.1 mph 18.4 mph N/A   Mostly Cloudy
1:53 PM 60.1 °F - 26.1 °F 27% 29.95 in 10.0 mi NW 9.2 mph - N/A   Mostly Cloudy
2:53 PM 60.1 °F - 28.0 °F 30% 29.95 in 10.0 mi SW 13.8 mph - N/A   Mostly Cloudy
3:01 PM 61.0 °F - 28.9 °F 30% 29.93 in 10.0 mi SW 13.8 mph - N/A   Mostly Cloudy
3:53 PM 59.0 °F - 28.0 °F 31% 29.94 in 10.0 mi NW 8.1 mph - N/A   Mostly Cloudy
4:53 PM 61.0 °F - 27.0 °F 27% 29.91 in 10.0 mi Calm Calm - N/A   Overcast
5:53 PM 61.0 °F - 28.0 °F 29% 29.91 in 10.0 mi ENE 3.5 mph - N/A   Clear
6:53 PM 57.9 °F - 30.0 °F 35% 29.91 in 10.0 mi NE 3.5 mph - N/A   Mostly Cloudy
7:53 PM 55.9 °F - 28.0 °F 34% 29.93 in 10.0 mi ENE 5.8 mph - N/A   Mostly Cloudy
8:53 PM 51.1 °F - 28.9 °F 43% 29.94 in 10.0 mi ENE 5.8 mph - N/A   Mostly Cloudy
9:53 PM 51.1 °F - 28.9 °F 43% 29.96 in 10.0 mi NE 6.9 mph - N/A   Overcast
10:53 PM 48.9 °F - 30.0 °F 48% 29.96 in 10.0 mi ENE 6.9 mph - N/A   Mostly Cloudy
11:53 PM 48.9 °F - 28.9 °F 46% 29.95 in 10.0 mi ENE 6.9 mph - N/A   Scattered Clouds